FW5442 Weather Reports


time (UTC)temp
C
wind
direction
speed
KPH
gust
KPH
rain 1hr
cm
rain 24hr
cm
rain mn
cm
humidity
%
barometer
mb
20260903221603 33 213 12.9 24.1 0.00 0.00 0.00 50 1012.8
20260903221054 34 116 1.6 27.4 0.00 0.00 0.00 48 1012.4
20260903220553 34 101 4.8 27.4 0.00 0.00 0.00 47 1012.3
20260903220106 36 70 4.8 14.5 0.00 0.00 0.00 44 1012.1
20260903215554 36 68 3.2 8.0 0.00 0.00 0.00 41 1011.8
20260903215054 36 77 4.8 8.0 0.00 0.00 0.00 39 1011.9
20260903214559 37 64 3.2 8.0 0.00 0.00 0.00 39 1011.8
20260903214052 37 316 1.6 8.0 0.00 0.00 0.00 40 1012.0
20260903213553 37 13 4.8 8.0 0.00 0.00 0.00 39 1011.8
20260903213101 37 0 3.2 8.0 0.00 0.00 0.00 38 1011.8
20260903212552 37 326 3.2 12.9 0.00 0.00 0.00 39 1011.9
20260903212054 37 0 4.8 12.9 0.00 0.00 0.00 40 1012.0
20260903211600 37 281 8.0 12.9 0.00 0.00 0.00 39 1012.0
20260903211054 38 342 1.6 8.0 0.00 0.00 0.00 38 1012.1
20260903210554 37 0 3.2 8.0 0.00 0.00 0.00 38 1012.1
20260903210104 37 80 4.8 11.3 0.00 0.00 0.00 37 1012.2
20260903205553 38 179 3.2 11.3 0.00 0.00 0.00 38 1012.2
20260903205052 37 184 1.6 8.0 0.00 0.00 0.00 39 1012.3
20260903204605 37 160 3.2 11.3 0.00 0.00 0.00 38 1012.3
20260903204052 37 196 4.8 11.3 0.00 0.00 0.00 38 1012.5
20260903203556 37 153 4.8 12.9 0.00 0.00 0.00 40 1012.4
20260903203102 36 159 6.4 12.9 0.00 0.00 0.00 40 1012.5
20260903202554 37 134 8.0 12.9 0.00 0.00 0.00 39 1012.6
20260903202055 37 103 4.8 16.1 0.00 0.00 0.00 40 1012.7
20260903201603 37 80 4.8 19.3 0.00 0.00 0.00 40 1012.8
20260903201054 37 258 9.7 19.3 0.00 0.00 0.00 39 1012.8
20260903200553 37 276 14.5 19.3 0.00 0.00 0.00 40 1012.8
20260903200100 37 269 9.7 20.9 0.00 0.00 0.00 39 1012.9
20260903195555 37 226 9.7 20.9 0.00 0.00 0.00 39 1012.9
20260903195052 37 233 4.8 16.1 0.00 0.00 0.00 39 1013.1
20260903194604 37 233 3.2 12.9 0.00 0.00 0.00 40 1013.3
20260903194141 36 157 4.8 12.9 0.00 0.00 0.00 40 1013.4
20260903193555 37 111 1.6 12.9 0.00 0.00 0.00 40 1013.3
20260903193118 37 150 8.0 14.5 0.00 0.00 0.00 40 1013.6
20260903192555 37 79 1.6 14.5 0.00 0.00 0.00 41 1013.6
20260903192052 37 156 8.0 14.5 0.00 0.00 0.00 40 1013.7
20260903191606 36 0 3.2 8.0 0.00 0.00 0.00 41 1013.6
20260903191052 36 143 4.8 8.0 0.00 0.00 0.00 41 1013.8
20260903190554 37 64 1.6 8.0 0.00 0.00 0.00 40 1013.8
20260903190104 37 81 3.2 8.0 0.00 0.00 0.00 40 1013.9
20260903185552 37 22 3.2 9.7 0.00 0.00 0.00 39 1014.0
20260903185052 37 126 4.8 11.3 0.00 0.00 0.00 39 1014.1
20260903184600 37 162 3.2 11.3 0.00 0.00 0.00 42 1014.1
20260903184052 36 154 6.4 9.7 0.00 0.00 0.00 43 1014.1
20260903183558 36 67 3.2 9.7 0.00 0.00 0.00 43 1014.2
20260903183104 36 101 3.2 12.9 0.00 0.00 0.00 44 1014.2
20260903182558 36 122 6.4 12.9 0.00 0.00 0.00 44 1014.3
20260903182053 36 131 3.2 12.9 0.00 0.00 0.00 45 1014.3
20260903181607 35 243 6.4 12.9 0.00 0.00 0.00 46 1014.4
20260903181052 35 207 3.2 6.4 0.00 0.00 0.00 47 1014.7
20260903180554 35 0 0.0 6.4 0.00 0.00 0.00 47 1014.6
20260903180113 35 119 1.6 8.0 0.00 0.00 0.00 47 1014.7
20260903175553 35 162 4.8 8.0 0.00 0.00 0.00 47 1014.7
20260903175055 35 123 3.2 12.9 0.00 0.00 0.00 48 1014.9
20260903174600 35 220 9.7 12.9 0.00 0.00 0.00 46 1015.1
20260903174053 35 207 4.8 12.9 0.00 0.00 0.00 47 1015.0
20260903173552 35 237 4.8 12.9 0.00 0.00 0.00 46 1015.1
20260903173106 36 149 4.8 14.5 0.00 0.00 0.00 45 1015.1
20260903172557 36 159 6.4 14.5 0.00 0.00 0.00 46 1015.2
20260903172053 35 120 6.4 14.5 0.00 0.00 0.00 47 1015.2
20260903171556 35 139 6.4 16.1 0.00 0.00 0.00 46 1015.3
20260903171054 35 133 8.0 16.1 0.00 0.00 0.00 48 1015.3
20260903170552 35 99 4.8 11.3 0.00 0.00 0.00 48 1015.4
20260903170219 35 167 4.8 9.7 0.00 0.00 0.00 48 1015.5
20260903165555 35 134 1.6 6.4 0.00 0.00 0.00 48 1015.5
20260903165055 35 0 0.0 9.7 0.00 0.00 0.00 50 1015.6
20260903164600 34 240 1.6 11.3 0.00 0.00 0.00 50 1015.6
20260903164053 33 328 3.2 11.3 0.00 0.00 0.00 52 1015.7
20260903163558 33 166 4.8 14.5 0.00 0.00 0.00 52 1015.7
20260903163103 33 249 3.2 14.5 0.00 0.00 0.00 52 1015.8
20260903162558 33 41 9.7 14.5 0.00 0.00 0.00 52 1015.7
20260903162054 33 266 6.4 14.5 0.00 0.00 0.00 53 1015.8
20260903161622 33 172 3.2 12.9 0.00 0.00 0.00 53 1015.8
20260903161053 33 348 4.8 11.3 0.00 0.00 0.00 55 1015.8
20260903160555 33 283 3.2 12.9 0.00 0.00 0.00 53 1015.8
20260903160101 32 230 4.8 14.5 0.00 0.00 0.00 54 1016.0
20260903155554 32 293 4.8 14.5 0.00 0.00 0.00 55 1016.1
20260903155053 32 298 1.6 14.5 0.00 0.00 0.00 54 1015.9
20260903154601 32 330 0.0 14.5 0.00 0.00 0.00 55 1015.9
20260903154053 32 288 9.7 14.5 0.00 0.00 0.00 55 1016.0
20260903153553 32 305 4.8 12.9 0.00 0.00 0.00 56 1015.9
20260903153057 32 302 6.4 17.7 0.00 0.00 0.00 57 1015.9
20260903152555 32 321 8.0 17.7 0.00 0.00 0.00 56 1015.7
20260903152054 32 5 4.8 17.7 0.00 0.00 0.00 57 1015.9
20260903151603 31 300 11.3 17.7 0.00 0.00 0.00 58 1015.9
20260903151058 31 328 6.4 17.7 0.00 0.00 0.00 58 1015.9
20260903150554 31 311 8.0 14.5 0.00 0.00 0.00 58 1015.8
20260903145555 31 288 6.4 17.7 0.00 0.00 0.00 58 1015.9
20260903145053 31 309 9.7 12.9 0.00 0.00 0.00 59 1015.9
20260903144602 31 278 8.0 17.7 0.00 0.00 0.00 59 1015.9
20260903144053 31 285 9.7 17.7 0.00 0.00 0.00 61 1015.7
20260903143554 31 283 9.7 17.7 0.00 0.00 0.00 60 1015.9
20260903143101 31 276 9.7 17.7 0.00 0.00 0.00 59 1016.0
20260903142557 30 277 11.3 17.7 0.00 0.00 0.00 61 1015.9
20260903142053 30 300 11.3 19.3 0.00 0.00 0.00 61 1015.9
20260903141602 30 304 11.3 20.9 0.00 0.00 0.00 62 1016.0
20260903141058 30 303 8.0 20.9 0.00 0.00 0.00 63 1016.2
20260903140555 30 268 11.3 20.9 0.00 0.00 0.00 63 1016.0
20260903140104 30 283 6.4 17.7 0.00 0.00 0.00 63 1016.0
20260903135555 30 284 8.0 17.7 0.00 0.03 0.00 65 1016.2
20260903135055 29 307 9.7 14.5 0.00 0.03 0.00 65 1016.1
20260903134603 29 305 8.0 12.9 0.00 0.03 0.00 67 1016.2
20260903134053 28 294 4.8 12.9 0.00 0.03 0.00 69 1016.2
20260903133553 28 311 6.4 11.3 0.00 0.03 0.00 69 1016.2
20260903133101 28 280 6.4 11.3 0.00 0.03 0.00 71 1016.3
20260903132554 28 294 8.0 11.3 0.00 0.03 0.00 71 1016.4
20260903132054 28 303 4.8 8.0 0.00 0.03 0.00 72 1016.3
20260903131609 28 331 4.8 8.0 0.00 0.03 0.00 73 1016.2
20260903131053 27 309 1.6 3.2 0.00 0.03 0.00 76 1016.3
20260903130554 27 6 0.0 6.4 0.00 0.03 0.00 78 1016.1
20260903130107 26 0 1.6 6.4 0.00 0.03 0.00 80 1016.2
20260903125555 26 274 4.8 6.4 0.00 0.03 0.00 80 1016.2
20260903125054 26 259 4.8 6.4 0.00 0.03 0.00 81 1016.1
20260903124626 26 0 0.0 1.6 0.00 0.03 0.00 81 1016.1
20260903124054 26 257 0.0 0.0 0.00 0.03 0.00 81 1016.1
20260903123554 26 0 0.0 0.0 0.00 0.03 0.00 81 1015.9
20260903123106 25 0 0.0 0.0 0.00 0.03 0.00 82 1015.9
20260903122553 25 0 0.0 0.0 0.00 0.03 0.00 83 1015.9
20260903122055 25 0 0.0 0.0 0.00 0.03 0.00 84 1015.8
20260903121606 25 0 0.0 0.0 0.00 0.03 0.00 85 1015.8
20260903121053 24 0 0.0 0.0 0.00 0.03 0.00 86 1015.7
20260903120554 24 0 0.0 1.6 0.00 0.03 0.00 87 1015.7
20260903120106 23 0 0.0 1.6 0.00 0.03 0.00 87 1015.7
20260903115556 23 165 0.0 1.6 0.00 0.03 0.00 89 1015.5
20260903115051 23 0 0.0 0.0 0.00 0.03 0.00 89 1015.5
20260903114614 23 0 0.0 0.0 0.00 0.03 0.00 90 1015.4
20260903114054 23 0 0.0 0.0 0.00 0.03 0.00 90 1015.5
20260903113554 23 0 0.0 0.0 0.00 0.03 0.00 90 1015.5
20260903113109 23 0 0.0 0.0 0.00 0.03 0.00 90 1015.4
20260903112554 23 0 0.0 0.0 0.00 0.03 0.00 90 1015.4
20260903112054 23 0 0.0 0.0 0.00 0.03 0.00 90 1015.3
20260903111603 23 0 0.0 0.0 0.00 0.03 0.00 88 1015.3
20260903111054 23 0 0.0 0.0 0.00 0.03 0.00 88 1015.2
20260903110554 23 0 0.0 0.0 0.00 0.03 0.00 88 1015.1
20260903110108 23 0 0.0 0.0 0.00 0.03 0.00 88 1015.0
20260903105555 23 0 0.0 0.0 0.00 0.03 0.00 88 1014.9
20260903105055 23 0 0.0 0.0 0.00 0.03 0.00 87 1014.9
20260903104607 23 0 0.0 0.0 0.00 0.03 0.00 87 1015.0
20260903104052 23 0 0.0 0.0 0.00 0.03 0.00 86 1014.9
20260903103554 23 0 0.0 0.0 0.00 0.03 0.00 86 1014.9
20260903103101 24 0 0.0 0.0 0.00 0.03 0.00 85 1014.9
20260903102552 24 0 0.0 0.0 0.00 0.03 0.00 85 1014.9
20260903102054 24 0 0.0 0.0 0.00 0.03 0.00 87 1015.0
20260903101602 23 0 0.0 0.0 0.00 0.03 0.00 87 1014.9
20260903101055 23 0 0.0 0.0 0.00 0.03 0.00 86 1014.8
20260903100557 23 0 0.0 0.0 0.00 0.03 0.00 86 1014.6
20260903100105 23 0 0.0 0.0 0.00 0.03 0.00 87 1014.7
20260903095557 23 0 0.0 0.0 0.00 0.03 0.00 86 1014.9
20260903095057 23 0 0.0 0.0 0.00 0.03 0.00 86 1014.8
20260903094605 23 0 0.0 0.0 0.00 0.03 0.00 85 1014.8
20260903094055 23 0 0.0 0.0 0.00 0.03 0.00 85 1014.7
20260903093556 24 0 0.0 0.0 0.00 0.03 0.00 86 1014.8
20260903093110 24 0 0.0 0.0 0.00 0.03 0.00 84 1014.8
20260903092559 24 0 0.0 0.0 0.00 0.03 0.00 83 1014.7
20260903092056 25 0 0.0 0.0 0.00 0.03 0.00 83 1014.6
20260903091605 25 0 0.0 0.0 0.00 0.03 0.00 84 1014.7
20260903091057 25 0 0.0 0.0 0.00 0.03 0.00 84 1014.7
20260903090557 25 0 0.0 0.0 0.00 0.03 0.00 83 1014.7
20260903090111 25 0 0.0 1.6 0.00 0.03 0.00 83 1014.7
20260903085557 25 0 0.0 1.6 0.00 0.03 0.00 83 1014.6
20260903085056 25 0 0.0 1.6 0.00 0.03 0.00 83 1014.5
20260903084618 25 0 0.0 0.0 0.00 0.03 0.00 84 1014.5
20260903084056 25 0 0.0 4.8 0.00 0.03 0.00 84 1014.5
20260903083558 24 0 0.0 4.8 0.00 0.03 0.00 85 1014.6
20260903083103 24 257 3.2 6.4 0.00 0.03 0.00 84 1014.7
20260903082556 24 257 3.2 6.4 0.00 0.03 0.00 85 1014.7
20260903082059 24 254 6.4 6.4 0.00 0.03 0.00 84 1014.7
20260903081559 25 249 6.4 6.4 0.00 0.03 0.00 84 1014.6
20260903081058 25 240 4.8 4.8 0.00 0.03 0.00 83 1014.6
20260903080557 25 243 0.0 4.8 0.00 0.03 0.00 81 1014.6
20260903080105 25 0 0.0 0.0 0.00 0.03 0.00 80 1014.6
20260903075556 25 0 0.0 0.0 0.00 0.03 0.00 80 1014.6
20260903075056 26 0 0.0 0.0 0.00 0.03 0.00 79 1014.5
20260903074604 26 0 0.0 0.0 0.00 0.03 0.00 78 1014.4
20260903074057 26 0 0.0 0.0 0.00 0.03 0.00 78 1014.4
20260903073558 26 0 0.0 0.0 0.00 0.03 0.00 78 1014.3
20260903073106 26 0 0.0 1.6 0.00 0.03 0.00 78 1014.4
20260903072552 26 0 0.0 3.2 0.00 0.03 0.00 78 1014.3
20260903072057 26 0 0.0 3.2 0.00 0.03 0.00 77 1014.4
20260903071603 26 88 1.6 4.8 0.00 0.03 0.00 78 1014.4
20260903071056 26 74 1.6 4.8 0.00 0.03 0.00 78 1014.5
20260903070556 26 79 3.2 4.8 0.00 0.03 0.00 79 1014.6
20260903065558 26 90 3.2 4.8 0.00 0.03 0.00 80 1014.6
20260903065056 26 84 3.2 4.8 0.00 0.03 0.00 80 1014.5
20260903064600 26 0 0.0 3.2 0.00 0.03 0.00 80 1014.7
20260903064056 26 0 0.0 4.8 0.00 0.03 0.00 80 1014.4
20260903063557 26 101 3.2 4.8 0.00 0.03 0.00 80 1014.5
20260903063106 26 88 3.2 6.4 0.00 0.03 0.00 80 1014.6
20260903062558 26 96 4.8 6.4 0.00 0.03 0.00 80 1014.7
20260903062053 26 86 4.8 6.4 0.00 0.03 0.00 80 1014.7
20260903061605 26 90 3.2 4.8 0.00 0.03 0.00 80 1014.7
20260903061057 26 92 4.8 4.8 0.00 0.03 0.00 80 1014.8
20260903060556 25 94 3.2 4.8 0.00 0.03 0.00 81 1014.7
20260903060106 25 82 3.2 4.8 0.00 0.03 0.00 81 1014.6
20260903055557 25 97 1.6 3.2 0.00 0.03 0.00 81 1014.8
20260903055057 25 106 1.6 3.2 0.00 0.03 0.00 81 1014.8
20260903054558 25 112 0.0 3.2 0.00 0.03 0.00 81 1014.9
20260903054053 25 126 1.6 3.2 0.00 0.03 0.00 81 1014.7
20260903053553 25 135 0.0 0.0 0.00 0.03 0.00 81 1014.6
20260903053101 25 0 0.0 1.6 0.00 0.03 0.00 81 1014.7
20260903052553 25 0 0.0 1.6 0.00 0.03 0.00 81 1014.5
20260903052054 25 146 1.6 1.6 0.00 0.03 0.00 81 1014.7
20260903051609 25 118 1.6 3.2 0.00 0.03 0.00 81 1014.6
20260903051052 25 122 1.6 4.8 0.00 0.03 0.00 81 1014.5
20260903050556 26 110 3.2 4.8 0.00 0.03 0.00 80 1014.5
20260903045555 26 89 3.2 6.4 0.00 0.03 0.03 79 1014.5
20260903045059 26 88 4.8 6.4 0.00 0.03 0.03 78 1014.3
20260903044601 26 77 4.8 6.4 0.00 0.03 0.03 77 1014.4
20260903044058 26 0 0.0 4.8 0.00 0.03 0.03 77 1014.5
20260903043553 26 88 1.6 4.8 0.00 0.03 0.03 77 1014.5
20260903043104 26 0 0.0 3.2 0.00 0.03 0.03 77 1014.4
20260903042557 26 0 1.6 3.2 0.00 0.03 0.03 77 1014.4
20260903042056 26 83 0.0 0.0 0.00 0.03 0.03 77 1014.5
20260903041601 27 0 0.0 0.0 0.00 0.03 0.03 76 1014.4
20260903041056 26 0 0.0 0.0 0.00 0.03 0.03 76 1014.4
20260903040557 26 0 0.0 0.0 0.00 0.03 0.03 76 1014.5
20260903040058 26 0 0.0 0.0 0.00 0.03 0.03 76 1014.5
20260903035555 26 0 0.0 0.0 0.00 0.03 0.03 76 1014.5
20260903035056 27 0 0.0 0.0 0.00 0.03 0.03 76 1014.5
20260903034602 26 0 0.0 0.0 0.00 0.03 0.03 76 1014.4
20260903034057 26 0 0.0 0.0 0.00 0.03 0.03 76 1014.4
20260903033618 26 0 0.0 0.0 0.00 0.03 0.03 76 1014.5
20260903033102 27 0 0.0 0.0 0.00 0.03 0.03 75 1014.6
20260903032556 27 0 0.0 0.0 0.00 0.03 0.03 74 1014.5
20260903032057 27 0 0.0 0.0 0.00 0.03 0.03 74 1014.5
20260903031601 27 0 0.0 0.0 0.00 0.03 0.03 74 1014.3
20260903031056 27 0 0.0 0.0 0.00 0.03 0.03 74 1014.4
20260903030556 27 0 0.0 0.0 0.00 0.03 0.03 74 1014.5
20260903030059 27 0 0.0 0.0 0.00 0.03 0.03 74 1014.5
20260903025553 27 0 0.0 0.0 0.00 0.03 0.03 74 1014.4
20260903025053 27 0 0.0 0.0 0.00 0.03 0.03 74 1014.6
20260903024604 27 0 0.0 0.0 0.00 0.03 0.03 75 1014.4
20260903024052 27 0 0.0 0.0 0.00 0.03 0.03 75 1014.4
20260903023559 27 0 0.0 0.0 0.00 0.03 0.03 74 1014.5
20260903023106 27 0 0.0 0.0 0.00 0.03 0.03 74 1014.5
20260903022556 27 0 0.0 0.0 0.00 0.03 0.03 74 1014.5
20260903022059 27 0 0.0 0.0 0.00 0.03 0.03 74 1014.4
20260903021602 27 0 0.0 0.0 0.00 0.03 0.03 73 1014.3
20260903021055 27 0 0.0 0.0 0.00 0.03 0.03 72 1014.3
20260903020556 27 0 0.0 0.0 0.00 0.03 0.03 72 1014.4
20260903020101 27 0 0.0 0.0 0.00 0.03 0.03 72 1014.3
20260903015553 28 0 0.0 1.6 0.00 0.03 0.03 72 1014.3
20260903015056 28 0 0.0 3.2 0.00 0.03 0.03 72 1014.1
20260903014611 28 0 0.0 3.2 0.00 0.03 0.03 72 1014.0
20260903014056 28 248 3.2 3.2 0.00 0.03 0.03 71 1014.1
20260903013556 28 245 3.2 3.2 0.00 0.03 0.03 71 1014.0
20260903013100 28 232 3.2 3.2 0.00 0.03 0.03 71 1014.0
20260903012557 28 232 1.6 4.8 0.00 0.03 0.03 70 1013.9
20260903012056 28 217 1.6 4.8 0.00 0.03 0.03 70 1013.9
20260903011600 28 225 3.2 4.8 0.00 0.03 0.03 69 1013.8
20260903011053 28 243 1.6 3.2 0.00 0.03 0.03 68 1013.8
20260903010553 28 260 1.6 8.0 0.00 0.03 0.03 68 1013.8
20260903010107 28 269 1.6 9.7 0.00 0.03 0.03 68 1013.9
20260903005555 29 229 8.0 11.3 0.00 0.03 0.03 67 1013.9
20260903005052 29 198 6.4 17.7 0.00 0.03 0.03 66 1013.9
20260903004602 30 210 8.0 17.7 0.00 0.03 0.03 64 1013.9
20260903004056 30 217 12.9 17.7 0.00 0.03 0.03 64 1014.0
20260903003557 30 236 12.9 16.1 0.00 0.03 0.03 62 1014.0
20260903003102 31 242 8.0 14.5 0.00 0.03 0.03 59 1013.9
20260903002556 31 191 11.3 14.5 0.00 0.03 0.03 58 1014.0
20260903002056 31 210 9.7 11.3 0.00 0.03 0.03 56 1013.9
20260903001608 31 154 6.4 8.0 0.00 0.03 0.03 56 1013.9
20260903001055 31 191 3.2 9.7 0.00 0.03 0.03 56 1013.9
20260903000556 31 152 4.8 9.7 0.00 0.03 0.03 57 1013.9
20260903000105 31 139 4.8 9.7 0.00 0.03 0.03 55 1013.9
20260902235553 31 169 6.4 12.9 0.00 0.03 0.03 55 1013.9
20260902235053 31 165 8.0 12.9 0.00 0.03 0.03 56 1013.8
20260902234608 31 212 11.3 14.5 0.00 0.03 0.03 57 1013.8
20260902234055 31 233 11.3 19.3 0.00 0.03 0.03 57 1013.7
20260902233559 31 224 11.3 24.1 0.00 0.03 0.03 57 1013.9
20260902233104 31 237 17.7 24.1 0.00 0.03 0.03 57 1013.9
20260902232555 31 236 14.5 20.9 0.00 0.03 0.03 57 1013.7
20260902232056 31 235 16.1 30.6 0.00 0.03 0.03 57 1013.6
20260902231603 31 214 19.3 37.0 0.00 0.03 0.03 57 1013.6
20260902231058 32 207 24.1 37.0 0.00 0.03 0.03 56 1013.9
20260902230555 32 209 24.1 33.8 0.00 0.03 0.03 54 1013.8
20260902230115 33 216 25.7 33.8 0.00 0.03 0.03 52 1013.8
20260902225556 33 189 14.5 19.3 0.00 0.03 0.03 51 1013.8
20260902225058 33 233 9.7 17.7 0.00 0.03 0.03 49 1013.6
20260902224601 33 239 9.7 17.7 0.00 0.03 0.03 50 1013.6
20260902224052 33 247 8.0 12.9 0.00 0.03 0.03 50 1013.6
20260902223552 33 269 6.4 14.5 0.00 0.03 0.03 51 1013.5
20260902223118 33 271 8.0 22.5 0.00 0.03 0.03 51 1013.6
20260902222557 33 299 8.0 22.5 0.00 0.03 0.03 50 1013.5
20260902222055 34 264 6.4 19.3 0.00 0.03 0.03 49 1013.5